KF8ADQ-10 Weather Reports


time (UTC)temp
C
wind
direction
speed
KPH
gust
KPH
rain 1hr
cm
rain 24hr
cm
rain mn
cm
humidity
%
barometer
mb
20260510080007 11 90 0.0 9.7 0.00 0.00 0.00 99 100.7
20260510073006 11 0 0.0 8.0 0.00 0.00 0.00 99 100.7
20260510070007 11 90 0.0 8.0 0.00 0.00 0.00 99 100.6
20260510063007 11 180 0.0 8.0 0.00 0.00 0.00 99 100.6
20260510060007 11 180 0.0 4.8 0.00 0.00 0.00 99 100.5
20260510053007 11 180 0.0 0.0 0.00 0.00 0.00 99 100.5
20260510050006 11 225 0.0 0.0 0.00 0.00 0.00 99 100.5
20260510043006 12 225 0.0 4.8 0.00 0.00 0.00 99 100.5
20260510040007 12 180 0.0 4.8 0.00 0.00 0.00 99 100.5
20260510033007 12 158 0.0 24.1 0.00 0.00 0.00 99 100.5
20260510030007 12 270 0.0 24.1 0.00 0.00 0.00 99 100.5
20260510023007 12 158 0.0 0.0 0.00 0.00 0.00 99 100.4
20260510020006 12 180 0.0 0.0 0.00 0.00 0.00 99 100.4
20260510013006 12 158 0.0 6.4 0.00 0.00 0.00 99 100.4
20260510010007 12 135 0.0 11.3 0.00 0.00 0.00 99 100.4
20260510003006 12 203 0.0 17.7 0.00 0.00 0.00 98 100.4
20260510000006 13 23 0.0 17.7 0.00 0.00 0.00 96 100.4
20260509233007 18 270 0.0 17.7 0.00 0.00 0.00 66 100.1
20260509230006 19 113 0.0 20.9 0.00 0.00 0.00 63 100.1
20260509223006 20 203 0.0 20.9 0.00 0.00 0.00 62 100.1
20260509220006 20 203 0.0 20.9 0.00 0.00 0.00 58 100.1
20260509213006 21 248 0.0 19.3 0.00 0.00 0.00 55 100.1
20260509210006 21 225 0.0 17.7 0.00 0.00 0.00 57 100.2
20260509203006 21 248 0.0 17.7 0.00 0.00 0.00 59 100.2
20260509200006 20 270 0.0 14.5 0.00 0.00 0.00 62 100.2
20260509193006 20 203 0.0 14.5 0.00 0.00 0.00 62 100.3
20260509190006 20 248 0.0 14.5 0.00 0.00 0.00 62 100.3
20260509183006 20 203 0.0 14.5 0.00 0.00 0.00 67 100.3
20260509180006 18 225 0.0 11.3 0.00 0.00 0.00 70 100.3
20260509173007 18 225 0.0 11.3 0.00 0.00 0.00 72 100.3
20260509170006 18 180 0.0 11.3 0.00 0.00 0.00 72 100.4
20260509163006 17 90 0.0 11.3 0.00 0.00 0.00 78 100.4
20260509160006 16 180 0.0 9.7 0.00 0.00 0.00 83 100.4
20260509153007 15 203 0.0 8.0 0.00 0.00 0.00 88 100.4
20260509150006 14 270 0.0 8.0 0.00 0.00 0.00 95 100.4
20260509143006 12 248 0.0 8.0 0.00 0.00 0.00 99 100.4
20260509140006 12 180 0.0 8.0 0.00 0.00 0.00 99 100.4
20260509133007 11 203 0.0 6.4 0.00 0.00 0.00 99 100.4
20260509130007 11 113 0.0 3.2 0.00 0.00 0.00 99 100.4
20260509123007 11 180 0.0 0.0 0.00 0.00 0.00 99 100.4
20260509120006 10 158 0.0 3.2 0.00 0.00 0.00 99 100.4
20260509113007 10 158 0.0 3.2 0.00 0.00 0.00 99 100.4
20260509110010 10 225 0.0 6.4 0.00 0.00 0.00 99 100.4
20260509103006 10 158 0.0 6.4 0.00 0.00 0.00 99 100.4
20260509100009 10 158 0.0 9.7 0.00 0.00 0.00 99 100.4
20260509093007 10 203 0.0 9.7 0.00 0.00 0.00 99 100.4
20260509090006 10 135 0.0 8.0 0.00 0.00 0.00 99 100.4
20260509083007 10 225 0.0 6.4 0.00 0.00 0.00 99 100.5